KB7STN Weather Reports


time (UTC)temp
F
wind
direction
speed
knots
gust
knots
rain 1hr
in
rain 24hr
in
rain mn
in
humidity
%
barometer
mb
20260507070213 48 38 0.0 0.0 0.00 0.09 0.00 41 1013.8
20260507065713 47 38 0.0 0.0 0.00 0.09 0.00 42 1013.7
20260507065213 47 38 0.0 0.0 0.00 0.09 0.00 41 1013.7
20260507064713 48 38 0.0 0.0 0.00 0.09 0.00 41 1013.7
20260507064213 48 38 0.0 0.0 0.00 0.09 0.00 41 1013.7
20260507063713 48 38 0.0 0.0 0.00 0.09 0.00 41 1013.7
20260507063213 48 38 0.0 0.0 0.00 0.09 0.00 40 1013.7
20260507062713 48 38 0.0 0.9 0.00 0.09 0.00 40 1013.7
20260507062213 48 38 0.9 1.7 0.00 0.09 0.00 40 1013.7
20260507061713 48 38 0.0 2.6 0.00 0.09 0.00 41 1013.6
20260507061213 48 38 0.0 0.0 0.00 0.09 0.00 39 1013.6
20260507060713 48 38 0.0 0.0 0.00 0.09 0.00 40 1013.6
20260507060213 48 38 0.0 1.7 0.00 0.09 0.00 41 1013.6
20260507055713 48 38 0.0 0.9 0.00 0.09 0.09 40 1013.5
20260507055213 48 38 0.0 2.6 0.00 0.09 0.09 41 1013.5
20260507054713 48 38 0.0 0.0 0.00 0.09 0.09 41 1013.5
20260507054213 49 38 0.0 0.0 0.00 0.09 0.09 40 1013.4
20260507053713 49 38 0.9 1.7 0.00 0.09 0.09 40 1013.4
20260507053213 49 38 0.9 2.6 0.00 0.09 0.09 39 1013.5
20260507052713 50 38 0.0 1.7 0.00 0.09 0.09 38 1013.4
20260507052213 50 38 0.0 0.0 0.00 0.09 0.09 38 1013.4
20260507051713 50 38 0.0 0.0 0.00 0.09 0.09 37 1013.4
20260507051213 50 38 0.0 0.9 0.00 0.09 0.09 37 1013.5
20260507050713 50 38 0.0 0.0 0.00 0.09 0.09 36 1013.5
20260507050213 50 38 0.0 0.0 0.00 0.09 0.09 36 1013.6
20260507045713 50 38 0.0 0.0 0.00 0.09 0.09 37 1013.7
20260507045213 50 38 0.0 0.0 0.00 0.09 0.09 37 1013.7
20260507044713 50 38 0.0 0.0 0.00 0.09 0.09 37 1013.7
20260507044213 50 38 0.0 0.0 0.00 0.09 0.09 38 1013.7
20260507043713 50 38 0.0 0.0 0.00 0.09 0.09 38 1013.6
20260507043213 50 38 0.0 0.0 0.00 0.09 0.09 36 1013.6
20260507042713 50 38 0.0 0.0 0.00 0.09 0.09 37 1013.5
20260507042213 50 38 0.0 0.0 0.00 0.09 0.09 36 1013.5
20260507041713 50 38 0.0 0.0 0.00 0.09 0.09 35 1013.5
20260507041213 50 38 0.0 0.0 0.00 0.09 0.09 35 1013.5
20260507040713 50 38 0.0 0.0 0.00 0.09 0.09 35 1013.6
20260507040214 50 38 0.0 0.0 0.00 0.09 0.09 35 1013.6
20260507035713 50 38 0.0 0.0 0.00 0.09 0.09 35 1013.7
20260507035213 50 38 0.0 0.0 0.00 0.09 0.09 36 1013.7
20260507034713 50 38 0.0 0.0 0.00 0.09 0.09 36 1013.7
20260507034213 50 38 0.0 0.0 0.00 0.09 0.09 36 1013.6
20260507033713 51 38 0.0 0.0 0.00 0.09 0.09 35 1013.5
20260507033213 51 38 0.0 0.0 0.00 0.09 0.09 35 1013.5
20260507032713 51 38 0.0 0.0 0.00 0.09 0.09 35 1013.4
20260507032213 51 38 0.0 0.0 0.00 0.09 0.09 34 1013.2
20260507031714 52 38 0.0 0.0 0.00 0.09 0.09 34 1013.1
20260507031214 52 38 0.0 0.0 0.00 0.09 0.09 34 1013.1
20260507030713 52 38 0.0 0.0 0.00 0.09 0.09 35 1013.1
20260507030213 53 38 0.0 0.0 0.00 0.09 0.09 34 1013.1
20260507025714 53 38 0.0 0.0 0.00 0.09 0.09 34 1013.1
20260507025213 53 38 0.0 0.0 0.00 0.09 0.09 34 1013.1
20260507024714 54 38 0.0 0.0 0.00 0.09 0.09 32 1013.2
20260507024213 54 38 0.0 0.0 0.00 0.09 0.09 32 1013.2
20260507023714 55 38 0.0 0.0 0.00 0.09 0.09 32 1013.1
20260507023214 55 38 0.0 1.7 0.00 0.09 0.09 32 1013.1
20260507022714 55 38 0.0 0.0 0.00 0.09 0.09 30 1013.0
20260507022214 56 38 0.0 0.9 0.00 0.09 0.09 28 1013.1
20260507021714 56 38 0.0 0.9 0.00 0.09 0.09 30 1013.1
20260507021214 57 38 0.0 0.9 0.00 0.09 0.09 26 1013.0
20260507020714 57 38 0.0 1.7 0.00 0.09 0.09 26 1013.0
20260507020214 58 38 0.0 1.7 0.00 0.09 0.09 26 1013.0
20260507015714 58 38 0.9 3.5 0.00 0.09 0.09 26 1013.1
20260507015214 58 38 0.9 3.5 0.00 0.09 0.09 26 1013.1
20260507014714 59 38 0.0 2.6 0.00 0.09 0.09 25 1013.1
20260507014214 59 38 0.9 1.7 0.00 0.09 0.09 24 1013.1
20260507013714 60 38 1.7 3.5 0.00 0.09 0.09 24 1013.1
20260507013214 60 38 0.9 3.5 0.00 0.09 0.09 23 1013.1
20260507012714 60 38 0.9 3.5 0.00 0.09 0.09 23 1013.1
20260507012214 60 38 1.7 6.1 0.00 0.09 0.09 23 1013.2
20260507011714 61 37 1.7 6.1 0.00 0.09 0.09 23 1013.1
20260507011214 61 41 0.9 4.3 0.00 0.09 0.09 23 1013.2
20260507010714 61 38 0.9 3.5 0.00 0.09 0.09 24 1013.2
20260507010214 61 38 1.7 4.3 0.00 0.09 0.09 23 1013.2
20260507005714 61 39 1.7 4.3 0.00 0.09 0.09 24 1013.4
20260507005214 61 38 1.7 4.3 0.00 0.09 0.09 23 1013.3
20260507004714 61 39 2.6 4.3 0.00 0.09 0.09 23 1013.4
20260507004214 61 31 2.6 6.1 0.00 0.09 0.09 23 1013.4
20260507003714 61 29 2.6 6.1 0.00 0.09 0.09 23 1013.4
20260507003214 61 30 2.6 7.0 0.00 0.09 0.09 23 1013.3
20260507002714 61 46 1.7 5.2 0.00 0.09 0.09 24 1013.2
20260507002214 61 34 1.7 7.8 0.00 0.09 0.09 24 1013.3
20260507001714 61 28 2.6 7.0 0.00 0.09 0.09 23 1013.2
20260507001214 61 46 2.6 7.0 0.00 0.09 0.09 24 1013.3
20260507000714 60 42 2.6 7.0 0.00 0.09 0.09 24 1013.3
20260507000214 60 61 2.6 7.0 0.00 0.09 0.09 23 1013.3
20260506235714 60 71 3.5 7.8 0.00 0.09 0.09 23 1013.3
20260506235214 60 38 3.5 8.7 0.00 0.09 0.09 24 1013.3
20260506234714 60 39 3.5 7.0 0.00 0.09 0.09 23 1013.2
20260506234214 60 29 3.5 10.4 0.00 0.09 0.09 23 1013.3
20260506233714 60 47 3.5 7.0 0.00 0.09 0.09 24 1013.2
20260506233214 60 32 3.5 8.7 0.00 0.09 0.09 23 1013.2
20260506232714 61 50 2.6 7.8 0.00 0.09 0.09 23 1013.1
20260506232214 61 14 2.6 7.8 0.00 0.09 0.09 24 1013.2
20260506231714 61 62 2.6 6.1 0.00 0.09 0.09 24 1013.2
20260506231214 60 33 2.6 6.1 0.00 0.09 0.09 25 1013.2
20260506230714 60 34 3.5 7.8 0.00 0.09 0.09 24 1013.3
20260506230214 60 46 2.6 8.7 0.00 0.09 0.09 23 1013.2
20260506225714 60 64 3.5 7.0 0.00 0.09 0.09 25 1013.2
20260506225214 60 54 3.5 9.6 0.00 0.09 0.09 23 1013.2
20260506224714 61 106 2.6 11.3 0.00 0.09 0.09 24 1013.3
20260506224214 60 24 3.5 7.8 0.00 0.09 0.09 26 1013.4
20260506223714 60 57 3.5 11.3 0.00 0.09 0.09 24 1013.4
20260506223214 60 42 2.6 7.8 0.00 0.09 0.09 25 1013.4
20260506222714 60 65 2.6 9.6 0.00 0.09 0.09 26 1013.4
20260506222214 60 62 2.6 7.0 0.00 0.09 0.09 26 1013.4
20260506221714 60 31 2.6 7.8 0.00 0.09 0.09 26 1013.4
20260506221214 60 26 3.5 7.8 0.00 0.09 0.09 27 1013.5
20260506220714 60 28 3.5 8.7 0.00 0.09 0.09 27 1013.6
20260506220214 60 33 2.6 7.8 0.00 0.09 0.09 27 1013.5
20260506215714 60 28 3.5 5.2 0.00 0.09 0.09 27 1013.5
20260506215214 60 27 3.5 9.6 0.00 0.09 0.09 27 1013.7
20260506214714 60 313 3.5 10.4 0.00 0.09 0.09 27 1013.8
20260506214214 60 28 3.5 10.4 0.00 0.09 0.09 29 1013.8
20260506213714 60 34 2.6 8.7 0.00 0.09 0.09 27 1013.8
20260506213214 59 29 2.6 8.7 0.00 0.09 0.09 30 1013.9
20260506212714 59 57 2.6 7.8 0.00 0.09 0.09 27 1014.0
20260506212214 59 37 2.6 7.0 0.00 0.09 0.09 29 1014.1
20260506211714 59 33 2.6 6.1 0.00 0.09 0.09 29 1014.0
20260506211214 59 21 3.5 12.2 0.00 0.09 0.09 28 1014.0
20260506210714 59 327 2.6 9.6 0.00 0.09 0.09 29 1013.7
20260506210214 59 320 3.5 7.8 0.00 0.09 0.09 29 1014.0
20260506205714 59 35 3.5 11.3 0.00 0.09 0.09 29 1014.0
20260506205214 58 55 3.5 9.6 0.00 0.09 0.09 29 1014.0
20260506204714 58 40 3.5 7.8 0.00 0.09 0.09 28 1013.9
20260506204214 58 315 4.3 12.2 0.00 0.09 0.09 30 1013.9
20260506203714 58 53 3.5 7.8 0.00 0.09 0.09 30 1013.8
20260506203214 58 58 3.5 8.7 0.00 0.09 0.09 27 1014.0
20260506202714 58 57 3.5 12.2 0.00 0.09 0.09 30 1014.0
20260506202214 58 28 3.5 8.7 0.00 0.09 0.09 30 1014.1
20260506201714 58 326 3.5 11.3 0.00 0.09 0.09 29 1014.1
20260506201214 57 35 3.5 7.8 0.00 0.09 0.09 31 1014.1
20260506200714 57 35 4.3 8.7 0.00 0.09 0.09 28 1014.2
20260506200214 57 15 3.5 9.6 0.00 0.09 0.09 29 1014.1
20260506195714 57 22 3.5 10.4 0.00 0.09 0.09 29 1014.0
20260506195214 57 26 4.3 8.7 0.00 0.09 0.09 27 1014.0
20260506194714 57 30 3.5 8.7 0.00 0.09 0.09 28 1014.1
20260506194214 57 32 3.5 8.7 0.00 0.09 0.09 29 1014.0
20260506193714 56 48 3.5 8.7 0.00 0.09 0.09 29 1014.1
20260506193214 56 320 4.3 7.8 0.00 0.09 0.09 31 1013.9
20260506192714 56 22 4.3 11.3 0.00 0.09 0.09 27 1014.1
20260506192214 56 21 3.5 9.6 0.00 0.09 0.09 28 1014.1
20260506191714 56 19 3.5 7.8 0.00 0.09 0.09 31 1014.2
20260506191214 55 38 3.5 7.0 0.00 0.09 0.09 29 1014.1
20260506190714 55 32 3.5 8.7 0.00 0.09 0.09 29 1014.0
20260506190214 55 17 4.3 8.7 0.00 0.09 0.09 27 1014.1
20260506185716 55 69 4.3 10.4 0.00 0.09 0.09 27 1014.2
20260506185214 55 22 3.5 7.0 0.00 0.09 0.09 29 1014.0
20260506184714 55 30 3.5 9.6 0.00 0.09 0.09 29 1014.1
20260506184214 54 67 3.5 7.8 0.00 0.09 0.09 28 1014.1
20260506183714 54 42 3.5 7.0 0.00 0.09 0.09 28 1014.2
20260506183214 54 54 3.5 13.0 0.00 0.09 0.09 27 1014.3
20260506182714 54 17 3.5 7.0 0.00 0.09 0.09 30 1014.2
20260506182214 54 346 3.5 12.2 0.00 0.09 0.09 28 1014.2
20260506181714 53 30 3.5 9.6 0.00 0.09 0.09 31 1014.2
20260506181214 53 0 3.5 8.7 0.00 0.09 0.09 27 1014.2
20260506180714 53 31 3.5 8.7 0.00 0.09 0.09 28 1014.1
20260506180214 53 24 4.3 8.7 0.00 0.09 0.09 29 1014.0
20260506175714 53 47 4.3 9.6 0.00 0.09 0.09 28 1014.2
20260506175214 53 40 4.3 9.6 0.00 0.09 0.09 27 1014.1
20260506174714 53 37 4.3 9.6 0.00 0.09 0.09 27 1014.0
20260506174214 53 46 4.3 8.7 0.00 0.09 0.09 29 1013.9
20260506173714 53 16 4.3 8.7 0.00 0.09 0.09 29 1013.8
20260506173214 53 28 4.3 11.3 0.00 0.09 0.09 30 1013.8
20260506172714 52 65 4.3 8.7 0.00 0.09 0.09 30 1013.6
20260506172214 52 13 5.2 12.2 0.00 0.09 0.09 29 1013.6
20260506171714 52 47 5.2 10.4 0.00 0.09 0.09 30 1013.6
20260506171214 52 14 4.3 12.2 0.00 0.09 0.09 29 1013.5
20260506170715 52 20 4.3 8.7 0.00 0.09 0.09 30 1013.4
20260506170214 52 62 5.2 13.0 0.00 0.09 0.09 28 1013.4
20260506165714 52 15 4.3 12.2 0.00 0.09 0.09 25 1013.3
20260506165215 51 19 4.3 9.6 0.00 0.09 0.09 28 1013.3
20260506164715 51 32 4.3 10.4 0.00 0.09 0.09 26 1013.2
20260506164214 51 49 4.3 7.8 0.00 0.09 0.09 27 1013.1
20260506163715 51 44 4.3 8.7 0.00 0.09 0.09 26 1013.0
20260506163214 51 51 4.3 8.7 0.00 0.09 0.09 28 1012.9
20260506162715 51 34 4.3 12.2 0.00 0.09 0.09 26 1012.9
20260506162214 52 37 4.3 7.8 0.00 0.09 0.09 27 1012.6
20260506161715 51 114 3.5 10.4 0.00 0.09 0.09 29 1012.6
20260506161215 51 26 4.3 7.0 0.00 0.09 0.09 29 1012.5
20260506160715 51 33 4.3 12.2 0.00 0.09 0.09 31 1012.3
20260506160215 51 90 4.3 9.6 0.00 0.09 0.09 35 1012.3
20260506155715 50 26 3.5 7.8 0.00 0.09 0.09 35 1012.3
20260506155215 50 25 4.3 8.7 0.00 0.09 0.09 36 1012.3
20260506154715 50 36 4.3 9.6 0.00 0.09 0.09 36 1012.1
20260506154215 50 76 4.3 9.6 0.00 0.09 0.09 37 1012.1
20260506153715 50 74 4.3 8.7 0.00 0.09 0.09 37 1012.0
20260506153215 50 34 3.5 10.4 0.00 0.09 0.09 38 1011.9
20260506152715 50 80 3.5 8.7 0.00 0.09 0.09 37 1011.9
20260506152215 50 47 3.5 10.4 0.00 0.09 0.09 40 1011.8
20260506151715 50 35 3.5 7.0 0.00 0.09 0.09 40 1011.7
20260506151215 50 30 3.5 8.7 0.00 0.09 0.09 40 1011.6
20260506150715 50 67 3.5 8.7 0.00 0.09 0.09 42 1011.6
20260506150215 50 56 2.6 8.7 0.00 0.09 0.09 46 1011.6
20260506145715 50 46 2.6 6.1 0.00 0.09 0.09 47 1011.5
20260506145215 50 24 2.6 6.1 0.00 0.09 0.09 47 1011.4
20260506144715 50 5 1.7 7.0 0.00 0.09 0.09 47 1011.3
20260506144215 50 348 2.6 5.2 0.00 0.09 0.09 47 1011.3
20260506143715 49 346 2.6 7.0 0.00 0.09 0.09 46 1011.2
20260506143215 49 341 1.7 6.1 0.00 0.09 0.09 47 1011.1
20260506142715 49 338 1.7 5.2 0.00 0.09 0.09 49 1011.2
20260506142215 49 337 1.7 6.1 0.00 0.09 0.09 48 1011.3
20260506141715 48 329 1.7 4.3 0.00 0.09 0.09 50 1011.2
20260506141215 48 326 1.7 4.3 0.00 0.09 0.09 50 1011.2
20260506140715 47 321 1.7 6.1 0.00 0.09 0.09 52 1011.1
20260506140215 47 321 1.7 6.1 0.00 0.09 0.09 55 1011.0
20260506135715 46 320 1.7 3.5 0.00 0.09 0.09 56 1011.0
20260506135215 46 320 1.7 4.3 0.00 0.09 0.09 57 1010.9
20260506134715 45 320 1.7 3.5 0.00 0.09 0.09 61 1010.8
20260506134215 44 320 0.9 4.3 0.00 0.09 0.09 63 1010.6
20260506133715 44 320 0.9 3.5 0.00 0.09 0.09 67 1010.6
20260506133215 43 320 0.9 2.6 0.00 0.09 0.09 68 1010.5
20260506132715 43 320 0.9 3.5 0.00 0.09 0.09 68 1010.4
20260506132215 43 320 0.0 3.5 0.00 0.09 0.09 69 1010.3
20260506131715 43 320 0.9 3.5 0.00 0.09 0.09 68 1010.2
20260506131215 42 320 0.9 4.3 0.00 0.09 0.09 68 1010.1
20260506130715 42 320 0.9 3.5 0.00 0.09 0.09 68 1010.0
20260506130215 42 320 0.9 3.5 0.00 0.09 0.09 70 1009.9
20260506125715 41 320 0.9 1.7 0.00 0.09 0.09 71 1009.9
20260506125215 41 320 0.9 2.6 0.00 0.09 0.09 71 1009.8
20260506124715 41 320 0.9 1.7 0.00 0.09 0.09 72 1009.8
20260506124215 41 320 0.9 2.6 0.00 0.09 0.09 72 1009.6
20260506123715 41 320 0.0 1.7 0.00 0.09 0.09 73 1009.6
20260506123215 41 320 0.9 1.7 0.00 0.09 0.09 73 1009.5
20260506122715 41 320 0.9 3.5 0.00 0.09 0.09 74 1009.5
20260506122215 41 320 0.9 1.7 0.00 0.09 0.09 74 1009.6
20260506121715 41 320 0.9 2.6 0.00 0.09 0.09 75 1009.5
20260506121215 40 320 0.9 2.6 0.00 0.09 0.09 76 1009.6
20260506120715 40 320 0.9 1.7 0.00 0.09 0.09 77 1009.4
20260506120215 40 320 0.9 2.6 0.00 0.09 0.09 77 1009.3
20260506115715 40 320 0.0 1.7 0.00 0.09 0.09 78 1009.3
20260506115215 40 320 0.9 1.7 0.00 0.09 0.09 78 1009.3
20260506114715 40 320 0.9 3.5 0.00 0.09 0.09 78 1009.2
20260506114215 40 320 0.9 3.5 0.00 0.09 0.09 78 1009.2
20260506113715 40 320 0.9 5.2 0.00 0.09 0.09 78 1009.1
20260506113215 40 320 1.7 5.2 0.00 0.09 0.09 78 1009.3
20260506112715 40 320 1.7 4.3 0.00 0.09 0.09 78 1009.2
20260506112215 40 320 1.7 5.2 0.00 0.09 0.09 78 1009.1
20260506111715 40 320 2.6 5.2 0.00 0.09 0.09 79 1009.2
20260506111215 40 320 2.6 7.0 0.00 0.09 0.09 79 1009.3
20260506110715 40 319 2.6 7.8 0.00 0.09 0.09 79 1009.1
20260506110215 40 319 2.6 7.8 0.00 0.09 0.09 80 1009.2
20260506105715 40 319 2.6 7.0 0.00 0.09 0.09 81 1009.1
20260506105215 40 319 2.6 8.7 0.01 0.09 0.09 81 1008.9
20260506104715 40 325 2.6 6.1 0.01 0.09 0.09 82 1008.8
20260506104215 39 325 3.5 9.6 0.01 0.09 0.09 83 1008.8
20260506103715 39 327 3.5 10.4 0.01 0.09 0.09 85 1008.7
20260506103215 39 324 2.6 7.8 0.01 0.09 0.09 86 1008.6
20260506102715 39 325 2.6 5.2 0.01 0.09 0.09 86 1008.4
20260506102215 39 325 2.6 6.1 0.01 0.09 0.09 87 1008.3
20260506101715 40 323 2.6 7.8 0.01 0.09 0.09 87 1008.1
20260506101215 40 322 2.6 7.0 0.01 0.09 0.09 87 1008.0
20260506100715 40 321 2.6 7.0 0.02 0.09 0.09 87 1008.0
20260506100215 40 323 2.6 6.1 0.02 0.09 0.09 88 1007.8
20260506095715 41 324 2.6 8.7 0.03 0.09 0.09 88 1007.8
20260506095215 41 327 2.6 7.0 0.02 0.08 0.08 88 1007.6
20260506094715 41 328 2.6 7.0 0.04 0.08 0.08 88 1007.5
20260506094215 41 331 2.6 7.0 0.07 0.08 0.08 88 1007.2
20260506093715 41 5 1.7 7.0 0.08 0.08 0.08 88 1007.2
20260506093215 41 19 1.7 4.3 0.08 0.08 0.08 87 1007.2
20260506092715 41 19 1.7 6.1 0.08 0.08 0.08 87 1007.2
20260506092215 41 26 1.7 4.3 0.08 0.08 0.08 86 1007.2
20260506091715 41 28 0.9 4.3 0.08 0.08 0.08 86 1007.1
20260506091215 42 28 0.9 4.3 0.08 0.08 0.08 85 1007.1
20260506090715 42 30 0.9 4.3 0.07 0.07 0.07 84 1007.0
20260506090215 42 33 1.7 5.2 0.07 0.07 0.07 82 1006.8
20260506085715 43 38 3.5 7.8 0.06 0.06 0.06 80 1006.8
20260506085215 44 59 4.3 9.6 0.06 0.06 0.06 75 1006.7
20260506084715 46 70 2.6 9.6 0.04 0.04 0.04 73 1006.5
20260506084215 48 277 1.7 4.3 0.01 0.01 0.01 76 1005.9
20260506083715 47 276 0.9 5.2 0.00 0.00 0.00 75 1004.8
20260506083215 48 276 0.0 1.7 0.00 0.00 0.00 74 1004.5
20260506082715 48 275 0.0 0.0 0.00 0.00 0.00 73 1004.0
20260506082215 48 276 0.0 0.0 0.00 0.00 0.00 72 1003.9
20260506081715 48 275 0.0 0.0 0.00 0.00 0.00 70 1004.1
20260506081215 49 275 0.0 0.0 0.00 0.00 0.00 69 1004.0
20260506080715 49 275 0.0 0.0 0.00 0.00 0.00 68 1004.0
20260506080215 49 276 0.0 0.0 0.00 0.00 0.00 66 1004.1
20260506073215 49 275 0.9 2.6 0.00 0.00 0.00 67 1004.3
20260506072716 49 275 1.7 2.6 0.00 0.00 0.00 69 1004.3
20260506072216 49 276 2.6 7.0 0.00 0.00 0.00 69 1004.3
20260506071716 48 276 3.5 7.8 0.00 0.00 0.00 70 1004.2
20260506071216 48 277 3.5 9.6 0.00 0.00 0.00 71 1004.1
20260506070716 48 275 2.6 7.8 0.00 0.00 0.00 73 1004.2